GW2922 Weather Reports


time (UTC)temp
F
wind
direction
speed
knots
gust
knots
rain 1hr
in
rain 24hr
in
rain mn
in
humidity
%
barometer
mb
20260503004441 74 98 1.7 3.5 0.00 0.00 0.00 41 1016.9
20260503003939 73 258 0.9 3.5 0.00 0.00 0.00 41 1016.9
20260503003435 73 13 1.7 6.1 0.00 0.00 0.00 42 1016.9
20260503002932 74 119 1.7 2.6 0.00 0.00 0.00 41 1016.9
20260503002429 74 109 0.9 1.7 0.00 0.00 0.00 41 1016.9
20260503001926 74 288 2.6 3.5 0.00 0.00 0.00 39 1016.9
20260503001422 74 6 2.6 6.1 0.00 0.00 0.00 41 1016.9
20260503000920 74 353 2.6 5.2 0.00 0.00 0.00 41 1016.9
20260503000417 73 307 1.7 3.5 0.00 0.00 0.00 41 1016.9
20260502235914 72 87 0.9 7.0 0.00 0.00 0.00 42 1016.9
20260502235411 72 290 4.3 7.0 0.00 0.00 0.00 43 1017.2
20260502234908 72 9 2.6 7.0 0.00 0.00 0.00 42 1016.9
20260502234405 73 35 1.7 3.5 0.00 0.00 0.00 42 1017.2
20260502233902 75 125 0.0 2.6 0.00 0.00 0.00 39 1017.2
20260502233357 75 76 0.9 3.5 0.00 0.00 0.00 40 1017.2
20260502232855 75 128 0.0 1.7 0.00 0.00 0.00 41 1017.2
20260502232351 74 83 0.9 3.5 0.00 0.00 0.00 41 1017.2
20260502231848 74 119 1.7 2.6 0.00 0.00 0.00 42 1017.2
20260502231346 74 237 0.9 5.2 0.00 0.00 0.00 41 1017.5
20260502230844 74 60 0.9 3.5 0.00 0.00 0.00 44 1017.5
20260502230342 74 64 0.9 2.6 0.00 0.00 0.00 43 1017.5
20260502225838 72 262 1.7 3.5 0.00 0.00 0.00 45 1017.5
20260502225334 72 85 0.9 6.1 0.00 0.00 0.00 48 1017.9
20260502224832 71 166 0.9 5.2 0.00 0.00 0.00 48 1017.9
20260502224328 74 11 1.7 1.7 0.00 0.00 0.00 43 1017.9
20260502223825 73 185 0.9 3.5 0.00 0.00 0.00 45 1017.9
20260502223323 71 123 0.0 5.2 0.00 0.00 0.00 45 1017.9
20260502222821 71 79 1.7 3.5 0.00 0.00 0.00 45 1017.9
20260502222318 70 262 5.2 7.0 0.00 0.00 0.00 45 1018.2
20260502221814 71 302 4.3 5.2 0.00 0.00 0.00 44 1018.5
20260502221310 72 276 1.7 5.2 0.00 0.00 0.00 44 1018.5
20260502220807 70 77 1.7 2.6 0.00 0.00 0.00 48 1018.5
20260502220303 70 51 4.3 7.0 0.00 0.00 0.00 47 1018.5
20260502215800 71 274 1.7 7.0 0.00 0.00 0.00 46 1018.5
20260502215257 71 210 1.7 2.6 0.00 0.00 0.00 48 1018.5
20260502214754 70 6 5.2 6.1 0.00 0.00 0.00 47 1018.5
20260502214250 70 134 0.9 3.5 0.00 0.00 0.00 50 1018.5
20260502213748 69 336 4.3 7.8 0.00 0.00 0.00 50 1018.5
20260502213245 69 15 2.6 5.2 0.00 0.00 0.00 51 1018.5
20260502212744 71 83 3.5 5.2 0.00 0.00 0.00 51 1018.5
20260502212242 70 106 3.5 5.2 0.00 0.00 0.00 53 1018.5
20260502211737 71 347 3.5 5.2 0.00 0.00 0.00 52 1018.5
20260502211234 72 128 0.9 1.7 0.00 0.00 0.00 50 1018.5
20260502210731 72 103 0.9 1.7 0.00 0.00 0.00 51 1018.5
20260502210229 70 213 1.7 3.5 0.00 0.00 0.00 54 1018.5
20260502205726 71 122 0.0 5.2 0.00 0.00 0.00 55 1018.5
20260502205222 69 94 0.9 6.1 0.00 0.00 0.00 55 1018.5
20260502204719 68 74 1.7 5.2 0.00 0.00 0.00 58 1018.5
20260502204217 69 345 6.1 8.7 0.00 0.00 0.00 56 1018.5
20260502203714 69 57 1.7 1.7 0.00 0.00 0.00 56 1018.5
20260502203212 71 61 1.7 2.6 0.00 0.00 0.00 53 1018.5
20260502202706 70 69 0.9 2.6 0.00 0.00 0.00 55 1018.5
20260502202205 69 10 3.5 5.2 0.00 0.00 0.00 54 1018.9
20260502201702 68 20 3.5 5.2 0.00 0.00 0.00 55 1018.9
20260502201158 67 36 2.6 7.8 0.00 0.00 0.00 55 1018.9
20260502200654 67 292 2.6 5.2 0.00 0.00 0.00 55 1019.2
20260502200150 67 51 2.6 7.8 0.00 0.00 0.00 55 1019.2
20260502195649 67 55 1.7 7.0 0.00 0.00 0.00 57 1018.9
20260502195145 67 35 1.7 5.2 0.00 0.00 0.00 57 1019.2
20260502194642 68 90 0.9 2.6 0.00 0.00 0.00 57 1019.2
20260502194138 68 6 2.6 2.6 0.00 0.00 0.00 57 1018.9
20260502193635 67 97 0.9 3.5 0.00 0.00 0.00 58 1019.2
20260502193132 66 318 5.2 7.0 0.00 0.00 0.00 58 1019.2
20260502192627 66 15 2.6 7.0 0.00 0.00 0.00 58 1019.2
20260502192125 67 348 2.6 3.5 0.00 0.00 0.00 58 1019.2
20260502191622 66 148 0.0 2.6 0.00 0.00 0.00 58 1019.2
20260502191119 66 42 1.7 3.5 0.00 0.00 0.00 57 1019.6
20260502190617 65 78 2.6 7.8 0.00 0.00 0.00 60 1019.2
20260502190114 64 24 2.6 6.1 0.00 0.00 0.00 61 1019.6
20260502185609 64 350 1.7 5.2 0.00 0.00 0.00 61 1019.6
20260502185106 64 1 5.2 6.1 0.00 0.00 0.00 61 1019.6
20260502184602 64 84 5.2 7.0 0.00 0.00 0.00 61 1019.6
20260502184057 64 59 2.6 3.5 0.00 0.00 0.00 62 1019.6
20260502183554 64 108 0.9 2.6 0.00 0.00 0.00 62 1019.6
20260502183050 65 69 0.9 5.2 0.00 0.00 0.00 63 1019.6
20260502182546 65 63 0.9 5.2 0.00 0.00 0.00 63 1019.6
20260502182042 64 141 0.9 7.0 0.00 0.00 0.00 64 1019.6
20260502181540 65 107 0.0 2.6 0.00 0.00 0.00 64 1019.6
20260502181038 64 341 2.6 3.5 0.00 0.00 0.00 64 1019.6
20260502180535 63 11 1.7 5.2 0.00 0.00 0.00 67 1019.6
20260502170454 60 311 0.9 6.1 0.00 0.00 0.00 72 1019.9
20260502163937 57 305 1.7 3.5 0.00 0.00 0.00 75 1019.9
20260502163433 57 52 0.9 2.6 0.00 0.00 0.00 76 1019.6
20260502162931 56 306 1.7 2.6 0.00 0.00 0.00 76 1019.9
20260502162428 56 316 0.9 2.6 0.00 0.00 0.00 77 1019.9
20260502161925 56 224 2.6 5.2 0.00 0.00 0.00 77 1019.6
20260502161421 56 46 2.6 3.5 0.00 0.00 0.00 77 1019.6
20260502160919 55 3 1.7 5.2 0.00 0.00 0.00 78 1019.6
20260502160417 55 21 3.5 5.2 0.00 0.00 0.00 78 1019.6
20260502151855 51 324 1.7 2.6 0.00 0.00 0.00 94 1019.6
20260502151351 51 28 0.9 0.9 0.00 0.00 0.00 94 1019.6
20260502150849 51 82 0.0 0.9 0.00 0.00 0.00 94 1019.6
20260502150345 50 82 0.9 1.7 0.00 0.00 0.00 95 1019.6
20260502130734 47 92 0.0 0.9 0.00 0.00 0.00 95 1019.6
20260502130231 47 127 0.0 0.0 0.00 0.00 0.00 95 1019.2
20260502123717 47 117 0.9 0.9 0.00 0.00 0.00 94 1019.2
20260502123214 47 134 0.0 0.0 0.00 0.00 0.00 94 1019.2
20260502122710 46 134 0.0 0.0 0.00 0.00 0.00 94 1019.2
20260502122207 47 134 0.0 0.0 0.00 0.00 0.00 94 1019.2
20260502121705 47 134 0.0 0.0 0.00 0.00 0.00 94 1019.2
20260502121203 47 122 0.0 0.0 0.00 0.00 0.00 94 1019.2
20260502120659 47 125 0.0 0.9 0.00 0.00 0.00 94 1019.2
20260502120156 46 166 0.0 0.9 0.00 0.00 0.00 94 1019.2
20260502115654 46 166 0.9 0.9 0.00 0.00 0.00 94 1019.2
20260502115149 46 139 0.0 0.0 0.00 0.00 0.00 93 1019.2
20260502114646 46 140 0.0 0.9 0.00 0.00 0.00 93 1019.2
20260502114143 47 134 0.0 0.0 0.00 0.00 0.00 93 1018.9
20260502113640 47 134 0.9 0.9 0.00 0.00 0.00 93 1018.5
20260502113139 47 134 0.0 0.9 0.00 0.00 0.00 93 1018.9
20260502112636 47 134 0.0 0.0 0.00 0.00 0.00 93 1018.9
20260502112133 47 134 0.0 0.0 0.00 0.00 0.00 93 1018.5
20260502111631 47 134 0.0 0.0 0.00 0.00 0.00 93 1018.9
20260502111128 47 134 0.0 0.0 0.00 0.00 0.00 93 1018.9
20260502110626 47 134 0.0 0.9 0.00 0.00 0.00 93 1018.9
20260502110123 48 135 0.0 0.0 0.00 0.00 0.00 93 1018.9
20260502105620 48 135 0.0 0.9 0.00 0.00 0.00 93 1018.9
20260502105117 47 130 0.0 0.0 0.00 0.00 0.00 92 1018.9
20260502104614 48 128 0.0 1.7 0.00 0.00 0.00 93 1018.9
20260502104112 47 118 0.0 0.0 0.00 0.00 0.00 92 1018.9
20260502103609 48 139 0.9 0.9 0.00 0.00 0.00 92 1018.9
20260502103108 48 77 0.0 0.0 0.00 0.00 0.00 92 1018.9
20260502102604 48 77 0.0 0.0 0.00 0.00 0.00 92 1019.2
20260502102101 48 77 0.0 0.0 0.00 0.00 0.00 92 1019.2
20260502101559 48 77 0.0 0.0 0.00 0.00 0.00 92 1019.2
20260502101057 48 77 0.0 0.0 0.00 0.00 0.00 92 1018.9
20260502100555 48 77 0.0 0.9 0.00 0.00 0.00 91 1018.9
20260502091529 48 198 0.0 0.9 0.00 0.00 0.00 91 1018.9
20260502091027 48 198 0.0 2.6 0.00 0.00 0.00 90 1018.9
20260502090524 49 140 0.0 0.9 0.00 0.00 0.00 90 1018.9
20260502071418 51 252 1.7 1.7 0.00 0.00 0.00 86 1018.5
20260502070916 51 95 0.9 3.5 0.00 0.00 0.00 86 1018.5
20260502070414 51 80 0.9 1.7 0.00 0.00 0.00 86 1018.5
20260502065912 51 0 0.9 2.6 0.00 0.00 0.00 85 1018.5
20260502065410 51 32 0.9 2.6 0.00 0.00 0.00 85 1018.9
20260502064908 51 86 0.9 1.7 0.00 0.00 0.00 85 1018.9
20260502064406 51 64 1.7 5.2 0.00 0.00 0.00 85 1018.5
20260502063903 51 117 0.9 6.1 0.00 0.00 0.00 84 1018.5
20260502063400 51 5 2.6 6.1 0.00 0.00 0.00 84 1018.5
20260502062858 51 30 1.7 3.5 0.00 0.00 0.00 84 1018.5
20260502062355 52 58 0.9 1.7 0.00 0.00 0.00 83 1018.5
20260502061854 52 111 0.9 2.6 0.00 0.00 0.00 83 1018.5
20260502061351 52 87 0.0 2.6 0.00 0.00 0.00 82 1018.5
20260502060847 52 67 0.0 3.5 0.00 0.00 0.00 83 1018.5
20260502060342 52 215 0.9 1.7 0.00 0.00 0.00 82 1018.5
20260502055840 52 216 3.5 5.2 0.00 0.00 0.00 82 1018.5
20260502055338 52 62 0.9 2.6 0.00 0.00 0.00 82 1018.2
20260502054837 52 124 1.7 2.6 0.00 0.00 0.00 82 1018.5
20260502054334 52 1 1.7 7.0 0.00 0.00 0.00 81 1018.5
20260502053831 52 59 0.9 5.2 0.00 0.00 0.00 81 1018.5
20260502053328 52 57 1.7 5.2 0.00 0.00 0.00 81 1018.5
20260502052826 53 341 2.6 5.2 0.00 0.00 0.00 81 1018.2
20260502052324 53 6 1.7 3.5 0.00 0.00 0.00 80 1018.5
20260502051821 53 102 0.9 8.7 0.00 0.00 0.00 80 1018.5
20260502051320 53 88 1.7 7.8 0.00 0.00 0.00 80 1018.5
20260502050816 53 32 1.7 5.2 0.00 0.00 0.00 79 1018.5
20260502050313 53 6 4.3 6.1 0.00 0.00 0.00 78 1018.5
20260502045810 53 65 1.7 3.5 0.00 0.00 0.00 79 1018.5
20260502045306 53 343 1.7 8.7 0.00 0.00 0.00 80 1018.5
20260502044804 53 9 0.9 3.5 0.00 0.00 0.00 79 1018.2
20260502044259 54 357 1.7 6.1 0.00 0.00 0.00 79 1018.2
20260502043757 54 114 1.7 6.1 0.00 0.00 0.00 78 1018.2
20260502043254 54 65 1.7 5.2 0.00 0.00 0.00 78 1017.9
20260502042753 54 91 1.7 6.1 0.00 0.00 0.00 77 1018.2
20260502042251 54 104 2.6 6.1 0.00 0.00 0.00 77 1018.2
20260502041749 54 105 0.9 6.1 0.00 0.00 0.00 77 1018.2
20260502041246 54 306 2.6 6.1 0.00 0.00 0.00 77 1018.2
20260502040743 54 104 0.9 5.2 0.00 0.00 0.00 77 1018.2
20260502040239 54 103 0.9 3.5 0.00 0.00 0.00 77 1018.2
20260502035735 55 344 1.7 5.2 0.00 0.00 0.00 77 1018.2
20260502035232 55 312 1.7 6.1 0.00 0.00 0.00 76 1018.2
20260502034730 55 1 5.2 7.8 0.00 0.00 0.00 75 1017.9
20260502034228 56 18 3.5 8.7 0.00 0.00 0.00 73 1017.9
20260502033726 56 228 1.7 6.1 0.00 0.00 0.00 73 1017.9
20260502033223 56 339 2.6 6.1 0.00 0.00 0.00 72 1017.9
20260502032720 56 12 1.7 5.2 0.00 0.00 0.00 73 1017.9
20260502032216 56 187 0.9 7.0 0.00 0.00 0.00 72 1017.9
20260502031714 56 281 1.7 8.7 0.00 0.00 0.00 72 1017.9
20260502031212 56 20 1.7 7.8 0.00 0.00 0.00 72 1017.9
20260502030710 56 350 2.6 7.0 0.00 0.00 0.00 71 1017.9
20260502030208 56 109 0.9 7.0 0.00 0.00 0.00 72 1017.5
20260502025705 56 338 2.6 7.8 0.00 0.00 0.00 73 1017.5
20260502025203 56 344 1.7 5.2 0.00 0.00 0.00 73 1017.5
20260502024700 56 120 0.9 5.2 0.00 0.00 0.00 73 1017.5
20260502024158 56 70 2.6 6.1 0.00 0.00 0.00 73 1017.5
20260502023656 56 32 4.3 7.8 0.00 0.00 0.00 74 1017.5
20260502023153 56 346 1.7 2.6 0.00 0.00 0.00 75 1017.5
20260502022650 56 339 1.7 2.6 0.00 0.00 0.00 75 1017.5
20260502022147 56 308 1.7 3.5 0.00 0.00 0.00 75 1017.5
20260502021644 56 10 1.7 3.5 0.00 0.00 0.00 75 1017.2
20260502021141 57 94 1.7 5.2 0.00 0.00 0.00 74 1017.2
20260502020638 57 329 4.3 7.0 0.00 0.00 0.00 74 1017.5
20260502020135 57 332 0.9 3.5 0.00 0.00 0.00 73 1017.5
20260502015633 57 74 2.6 7.0 0.00 0.00 0.00 74 1017.5
20260502015129 57 257 1.7 2.6 0.00 0.00 0.00 74 1017.5
20260502014627 57 345 1.7 5.2 0.00 0.00 0.00 74 1017.5
20260502014124 57 353 3.5 8.7 0.00 0.00 0.00 73 1017.5
20260502013620 58 307 3.5 6.1 0.00 0.00 0.00 73 1017.5
20260502013115 58 190 0.9 3.5 0.00 0.00 0.00 74 1017.5
20260502012613 57 229 1.7 3.5 0.00 0.00 0.00 74 1017.9
20260502012111 57 105 0.9 6.1 0.00 0.00 0.00 74 1017.9
20260502011607 57 290 1.7 3.5 0.00 0.00 0.00 74 1017.9
20260502011103 58 354 4.3 7.0 0.00 0.00 0.00 74 1017.5
20260502010601 58 101 0.9 1.7 0.00 0.00 0.00 75 1017.5
20260502010057 58 89 1.7 3.5 0.00 0.00 0.00 75 1017.9
20260502005555 59 343 0.9 7.0 0.00 0.00 0.00 75 1017.5
20260502005052 59 357 4.3 7.0 0.00 0.00 0.00 74 1017.5
20260502004548 58 339 3.5 5.2 0.00 0.00 0.00 75 1017.9